TimePDT,TemperatureF,Dew PointF,Humidity,Sea Level PressureIn,VisibilityMPH,Wind Direction,Wind SpeedMPH,Gust SpeedMPH,PrecipitationIn,Events,Conditions,WindDirDegrees,DateUTC
12:24 AM,53.6,53.6,100,30.19,0.5,Calm,Calm,-,N/A,Fog,Fog,0,2012-10-27 07:24:00
12:42 AM,53.6,53.6,100,30.19,1.5,Calm,Calm,-,N/A,,Overcast,0,2012-10-27 07:42:00
12:56 AM,54.0,53.1,97,30.19,2.5,Calm,Calm,-,N/A,,Overcast,0,2012-10-27 07:56:00
1:10 AM,53.6,53.6,100,30.19,1.5,Calm,Calm,-,N/A,,Overcast,0,2012-10-27 08:10:00
1:13 AM,53.6,53.6,100,30.19,3.0,Calm,Calm,-,N/A,,Overcast,0,2012-10-27 08:13:00
1:56 AM,54.0,53.1,97,30.20,9.0,Calm,Calm,-,N/A,,Overcast,0,2012-10-27 08:56:00
2:05 AM,53.6,53.6,100,30.20,10.0,Calm,Calm,-,N/A,,Overcast,0,2012-10-27 09:05:00
2:51 AM,53.6,53.6,100,30.19,9.0,Calm,Calm,-,N/A,,Overcast,0,2012-10-27 09:51:00
2:56 AM,54.0,54.0,100,30.19,9.0,Calm,Calm,-,N/A,,Overcast,0,2012-10-27 09:56:00
3:56 AM,55.0,54.0,96,30.19,10.0,Calm,Calm,-,N/A,,Overcast,0,2012-10-27 10:56:00
4:49 AM,55.4,53.6,94,30.17,10.0,Calm,Calm,-,N/A,,Overcast,0,2012-10-27 11:49:00
4:56 AM,55.0,54.0,96,30.18,10.0,Calm,Calm,-,N/A,,Overcast,0,2012-10-27 11:56:00
5:23 AM,55.4,53.6,94,30.17,10.0,Calm,Calm,-,N/A,,Overcast,0,2012-10-27 12:23:00
5:56 AM,55.0,53.1,93,30.18,10.0,Calm,Calm,-,N/A,,Overcast,0,2012-10-27 12:56:00
6:56 AM,55.9,53.1,90,30.17,10.0,East,4.6,-,N/A,,Overcast,90,2012-10-27 13:56:00
7:56 AM,55.0,53.1,93,30.17,10.0,Calm,Calm,-,N/A,,Overcast,0,2012-10-27 14:56:00
8:56 AM,57.9,53.1,84,30.18,10.0,Calm,Calm,-,N/A,,Overcast,0,2012-10-27 15:56:00
10:56 AM,59.0,53.1,81,30.19,10.0,South,5.8,-,N/A,,Overcast,170,2012-10-27 17:56:00
11:41 AM,59.0,53.6,82,30.19,10.0,South,4.6,-,N/A,,Overcast,180,2012-10-27 18:41:00
11:56 AM,59.0,54.0,83,30.19,10.0,South,5.8,-,N/A,,Overcast,170,2012-10-27 18:56:00
12:56 PM,61.0,55.0,81,30.17,10.0,South,6.9,-,N/A,,Overcast,170,2012-10-27 19:56:00
1:54 PM,59.0,55.4,88,30.15,10.0,South,6.9,-,N/A,,Overcast,170,2012-10-27 20:54:00
1:56 PM,59.0,55.9,90,30.15,10.0,South,8.1,-,N/A,,Overcast,170,2012-10-27 20:56:00
2:20 PM,59.0,55.4,88,30.14,10.0,South,4.6,-,N/A,,Overcast,170,2012-10-27 21:20:00
2:56 PM,61.0,55.9,83,30.14,10.0,SE,4.6,-,N/A,,Overcast,140,2012-10-27 21:56:00
3:56 PM,61.0,55.0,81,30.13,10.0,Calm,Calm,-,N/A,,Overcast,0,2012-10-27 22:56:00
4:56 PM,60.1,54.0,80,30.12,10.0,Calm,Calm,-,N/A,,Overcast,0,2012-10-27 23:56:00
5:56 PM,60.1,54.0,80,30.11,10.0,Calm,Calm,-,N/A,,Overcast,0,2012-10-28 00:56:00
6:04 PM,59.0,53.6,82,30.11,10.0,Calm,Calm,-,N/A,,Overcast,0,2012-10-28 01:04:00
6:13 PM,59.0,53.6,82,30.12,10.0,Calm,Calm,-,N/A,,Overcast,0,2012-10-28 01:13:00
6:46 PM,57.2,53.6,88,30.12,1.8,Calm,Calm,-,N/A,,Overcast,0,2012-10-28 01:46:00
6:56 PM,57.0,54.0,89,30.12,1.2,Calm,Calm,-,N/A,,Overcast,0,2012-10-28 01:56:00
7:12 PM,55.4,55.4,100,30.12,1.5,Calm,Calm,-,N/A,,Overcast,0,2012-10-28 02:12:00
7:56 PM,57.0,55.9,96,30.13,2.0,Calm,Calm,-,0.01,Rain,Light Rain,0,2012-10-28 02:56:00
8:21 PM,57.2,55.4,94,30.12,4.0,Calm,Calm,-,0.00,,Overcast,0,2012-10-28 03:21:00
8:54 PM,57.2,55.4,94,30.13,1.8,Calm,Calm,-,0.00,,Overcast,0,2012-10-28 03:54:00
8:56 PM,55.9,55.0,97,30.13,1.5,Calm,Calm,-,0.00,,Overcast,0,2012-10-28 03:56:00
9:03 PM,55.4,55.4,100,30.13,1.0,Calm,Calm,-,N/A,,Overcast,0,2012-10-28 04:03:00
9:17 PM,57.2,55.4,94,30.12,2.0,Calm,Calm,-,N/A,,Overcast,0,2012-10-28 04:17:00
9:26 PM,57.2,55.4,94,30.12,3.0,Calm,Calm,-,N/A,,Overcast,0,2012-10-28 04:26:00
9:56 PM,57.9,55.9,93,30.12,10.0,East,4.6,-,N/A,,Overcast,80,2012-10-28 04:56:00
10:25 PM,55.4,55.4,100,30.13,1.8,WNW,3.5,-,N/A,,Overcast,300,2012-10-28 05:25:00
10:30 PM,55.4,53.6,94,30.13,0.8,Calm,Calm,-,N/A,,Overcast,0,2012-10-28 05:30:00
10:43 PM,53.6,53.6,100,30.12,0.2,Calm,Calm,-,N/A,Fog,Fog,0,2012-10-28 05:43:00
10:56 PM,54.0,54.0,100,30.13,0.2,Calm,Calm,-,N/A,Fog,Fog,0,2012-10-28 05:56:00
11:56 PM,52.0,52.0,100,30.12,0.5,Calm,Calm,-,N/A,Fog,Fog,0,2012-10-28 06:56:00